[[{"header":{"parameterUnit":"m.s-1","parameterCategory":2,"la1":30.2991,"la2":30.254,"lo1":-89.0895,"lo2":-89.0444,"dy":0.0017,"dx":0.0017,"nx":28,"ny":28,"refTime":"2024-04-30T09:00:00:Z","depth":"0","parameterNumber":2,"parameterNumberName":"U-component_of_CURRENTS"},"data":[0,0,0,0,0,0,0,0,0,0,0,0,0,0,0,0,0,0,0,0,0,0,0,0,0,0,0,0,0,0,0,0,0,0,0,0,0,0,0,0,0,0,0,0,0,0,0,0,0,0,0,0,0,0,0,0,0,0,0.3258,0.3259,0,0.3317,0.3318,0.3318,0.3372,0.3373,0.3374,0.3375,0.3433,0.3433,0.3434,0,0,0,0,0,0,0,0,0,0,0,0,0,0.315,0.3152,0.3258,0.3259,0.326,0.3317,0.3318,0.3318,0.3372,0.3373,0.3374,0.3376,0.3433,0.3433,0.3434,0,0,0,0,0,0,0,0,0,0,0,0,0,0.3198,0.3153,0.3258,0.3297,0.3301,0.3317,0.3318,0.3318,0.3372,0.3373,0.3375,0.3376,0.3433,0.3433,0.3434,0.3409,0,0,0.3437,0.3437,0,0,0,0,0,0,0,0,0.3196,0.3202,0.329,0.3294,0.3299,0.3343,0.3301,0.335,0.3371,0.3341,0.3375,0.3377,0.3404,0.3407,0.3409,0.3412,0.3414,0.3437,0.3438,0.3438,0.3438,0,0,0,0,0,0,0,0.3192,0.3199,0.3277,0.3291,0.3297,0.3298,0.3306,0.331,0.336,0.3343,0.3348,0.3361,0.3406,0.3408,0.3411,0.3415,0.3437,0.3438,0.3438,0.3439,0.3417,0.3416,0,0,0,0,0,0,0.3194,0.3196,0.3276,0.328,0.3255,0.3299,0.3308,0.3324,0.336,0.3368,0.336,0.3363,0.3406,0.341,0.3413,0.3439,0.3438,0.3439,0.3439,0.3418,0.3417,0.3415,0,0,0,0,0,0,0.3191,0.32,0.3273,0.3242,0.3252,0.33,0.3316,0.3324,0.3331,0.3373,0.3381,0.336,0.3407,0.3412,0.3416,0.344,0.3439,0.344,0.3419,0.3417,0.3416,0.3457,0,0,0,0,0,0,0.3188,0.3199,0.3203,0.3243,0.3254,0.3288,0.3316,0.3324,0.3338,0.3343,0.3375,0.3382,0.3409,0.3414,0.3417,0.3441,0.3441,0.3421,0.3418,0.3416,0.3457,0.3457,0.3457,0,0,0,0,0,0.3184,0.3193,0.3202,0.3212,0.3261,0.3288,0.3294,0.333,0.3337,0.3339,0.3355,0.3382,0.3403,0.3414,0.3417,0.3443,0.3422,0.3419,0.3417,0.3457,0.3457,0.3457,0,0,0,0,0,0,0.3149,0.3201,0.3212,0.3236,0.326,0.33,0.331,0.332,0.3332,0.3339,0.3366,0.3373,0.3389,0.3389,0.34,0.3423,0.3417,0.3415,0.3446,0.3446,0.3446,0.3486,0.3441,0,0,0,0,0,0.3141,0.3163,0.3203,0.322,0.3234,0.3263,0.3275,0.3298,0.3319,0.3326,0.3346,0.336,0.3377,0.339,0.34,0.3406,0.3447,0.342,0.342,0.342,0.345,0.3517,0.3528,0.3407,0.3407,0.3407,0,0,0.3131,0.3163,0.3174,0.3213,0.3236,0.3262,0.3274,0.3297,0.3319,0.3328,0.3352,0.3359,0.3374,0.3395,0.3401,0.3404,0.3471,0.3417,0.3418,0.3448,0.3516,0.3529,0.354,0.3405,0.3406,0.3406,0,0,0.313,0.3151,0.3171,0.3194,0.3232,0.3254,0.3258,0.3291,0.3308,0.332,0.3339,0.3358,0.3367,0.3403,0.3417,0.3411,0.3465,0.3402,0.3449,0.3513,0.3525,0.3536,0.36,0.3617,0.3408,0.3408,0.3408,0,0.3117,0.3151,0.3176,0.3204,0.3233,0.325,0.3279,0.3293,0.332,0.3347,0.3332,0.338,0.3382,0.3442,0.3442,0.3421,0.3465,0.3457,0.352,0.3532,0.3543,0.3605,0.3623,0.341,0.3409,0.3409,0.3409,0,0.3132,0.3162,0.3176,0.3223,0.3249,0.3275,0.331,0.333,0.3343,0.337,0.3417,0.342,0.3466,0.3454,0.345,0.3527,0.3535,0.3514,0.3536,0.3559,0.3621,0.3639,0.3412,0.3411,0.3411,0.3411,0,0,0.3104,0.3175,0.3179,0.3214,0.3267,0.3294,0.3334,0.339,0.3443,0.3448,0.3522,0.3527,0.3547,0.3562,0.3562,0.3606,0.3704,0.3598,0.36,0.369,0.3863,0.3729,0.3737,0.3705,0.3709,0.3711,0.3875,0,0.311,0.3166,0.3203,0.3259,0.3296,0.3342,0.3387,0.344,0.3485,0.3554,0.3573,0.363,0.3584,0.3619,0.3657,0.3699,0.3755,0.3663,0.3802,0.3807,0.371,0.3754,0.3657,0.3782,0.3893,0.3896,0.3898,0,0.3116,0.3158,0.3214,0.3307,0.3329,0.3365,0.3472,0.3517,0.3616,0.3656,0.3723,0.3748,0.3822,0.3766,0.3881,0.383,0.3859,0.3877,0.3884,0.3765,0.3707,0.3774,0.3812,0.375,0.3927,0.3925,0.3922,0,0.3093,0.3172,0.322,0.3247,0.3344,0.3389,0.3446,0.3551,0.3584,0.3738,0.3769,0.3887,0.391,0.3993,0.3994,0.3973,0.4106,0.4083,0.3998,0.399,0.3937,0.3916,0.3958,0.4182,0.4181,0.4181,0.418,0,0.3094,0.3135,0.3215,0.3242,0.3304,0.3393,0.3465,0.3556,0.3653,0.3719,0.3814,0.3874,0.3963,0.4021,0.4065,0.4073,0.4168,0.4033,0.4029,0.394,0.3919,0.3882,0.3839,0.4187,0.4186,0.4184,0.4183,0,0.3066,0.3116,0.3171,0.3267,0.3292,0.3342,0.3416,0.3476,0.3586,0.3677,0.3719,0.3856,0.3971,0.4023,0.4157,0.4114,0.4068,0.4152,0.4029,0.4004,0.3837,0.3798,0.3669,0.3559,0.413,0.4127,0.4126,0,0.3055,0.3081,0.3156,0.317,0.321,0.3272,0.3312,0.3427,0.3489,0.3665,0.3709,0.3833,0.3907,0.4016,0.4042,0.4109,0.3994,0.4005,0.3926,0.3831,0.3788,0.3614,0.3519,0.3896,0.3893,0.389,0.3887,0,0.3027,0.305,0.309,0.3114,0.315,0.3172,0.3252,0.3263,0.3431,0.3484,0.3616,0.3694,0.3834,0.3853,0.3887,0.3922,0.3819,0.394,0.3903,0.3654,0.3414,0.3304,0.3789,0.3861,0.3863,0.3865,0.3867,0.3868,0.2987,0.2993,0.303,0.3042,0.3069,0.3072,0.3035,0.3126,0.3161,0.3233,0.3445,0.35,0.366,0.3708,0.3699,0.3651,0.3611,0.3596,0.358,0.3431,0.3228,0.3623,0.3623,0.3624,0.3625,0.3626,0.3627,0,0.2908,0.2925,0.2948,0.2941,0.2907,0.2959,0.2978,0.2915,0.2893,0.3051,0.3111,0.3271,0.3301,0.3416,0.3473,0.3357,0.3198,0.3274,0.3082,0.3025,0.3478,0.337,0.3236,0.3236,0.3236,0.3237,0.3237,0.3237,0.2868,0.2847,0.2853,0.2765,0.2749,0.2636,0.2595,0.2552,0.2599,0.2626,0.2711,0.2843,0.3145,0.3287,0.3255,0.3172,0.2953,0.2789,0.2753,0.3173,0.3204,0.3233,0.3124,0.2941,0.2941,0.2211,0.2205,0.2201]},{"header":{"parameterUnit":"m.s-1","parameterCategory":2,"la1":30.2991,"la2":30.254,"lo1":-89.0895,"lo2":-89.0444,"dy":0.0017,"dx":0.0017,"nx":28,"ny":28,"refTime":"2024-04-30T09:00:00:Z","depth":"0","parameterNumber":3,"parameterNumberName":"V-component_of_CURRENTS"},"data":[0,0,0,0,0,0,0,0,0,0,0,0,0,0,0,0,0,0,0,0,0,0,0,0,0,0,0,0,0,0,0,0,0,0,0,0,0,0,0,0,0,0,0,0,0,0,0,0,0,0,0,0,0,0,0,0,0,0,-0.0375,-0.0376,0,-0.0483,-0.0484,-0.0485,-0.0584,-0.0585,-0.0586,-0.0587,-0.0697,-0.0699,-0.0701,0,0,0,0,0,0,0,0,0,0,0,0,0,-0.0249,-0.025,-0.0375,-0.0377,-0.0378,-0.0483,-0.0484,-0.0486,-0.0583,-0.0585,-0.0586,-0.0587,-0.0697,-0.0699,-0.0701,0,0,0,0,0,0,0,0,0,0,0,0,0,-0.0325,-0.0251,-0.0375,-0.0438,-0.0445,-0.0482,-0.0484,-0.0486,-0.0583,-0.0585,-0.0586,-0.0588,-0.0696,-0.0699,-0.0701,-0.0687,0,0,-0.071,-0.0712,0,0,0,0,0,0,0,0,-0.0321,-0.033,-0.0428,-0.0434,-0.0442,-0.0521,-0.048,-0.0553,-0.0583,-0.0532,-0.0587,-0.0589,-0.0636,-0.0644,-0.0662,-0.0692,-0.0697,-0.0711,-0.0712,-0.0714,-0.0714,0,0,0,0,0,0,0,-0.0316,-0.0326,-0.0419,-0.0429,-0.0437,-0.0459,-0.0472,-0.0494,-0.0575,-0.0537,-0.0544,-0.0553,-0.0641,-0.0659,-0.0666,-0.0698,-0.071,-0.0713,-0.0715,-0.0716,-0.0777,-0.0777,0,0,0,0,0,0,-0.0299,-0.0321,-0.0416,-0.0422,-0.0383,-0.046,-0.0475,-0.0494,-0.0575,-0.0588,-0.0552,-0.0557,-0.0654,-0.0662,-0.067,-0.0685,-0.0714,-0.0716,-0.0718,-0.0777,-0.0777,-0.0776,0,0,0,0,0,0,-0.0296,-0.0307,-0.0411,-0.0372,-0.0387,-0.046,-0.0482,-0.0496,-0.0516,-0.0586,-0.06,-0.0557,-0.0655,-0.0666,-0.0707,-0.0689,-0.0718,-0.072,-0.0777,-0.0777,-0.0777,-0.0698,0,0,0,0,0,0,-0.0292,-0.0305,-0.0305,-0.0372,-0.0389,-0.0428,-0.0481,-0.0497,-0.0518,-0.0527,-0.0595,-0.0607,-0.0657,-0.0702,-0.071,-0.0694,-0.0722,-0.0777,-0.0777,-0.0777,-0.07,-0.0695,-0.069,0,0,0,0,0,-0.0287,-0.0276,-0.0305,-0.0316,-0.039,-0.0427,-0.0437,-0.0495,-0.0517,-0.0519,-0.058,-0.0605,-0.0706,-0.0705,-0.0713,-0.0698,-0.0777,-0.0777,-0.0777,-0.0703,-0.0696,-0.069,0,0,0,0,0,0,-0.0209,-0.0287,-0.032,-0.0331,-0.0374,-0.0443,-0.0441,-0.0481,-0.0528,-0.0533,-0.0605,-0.0621,-0.0653,-0.0684,-0.0681,-0.0717,-0.0744,-0.0745,-0.0685,-0.0679,-0.0674,-0.0626,-0.0725,0,0,0,0,0,-0.0193,-0.0213,-0.0285,-0.0288,-0.0305,-0.0369,-0.0387,-0.0426,-0.0479,-0.0502,-0.0555,-0.0608,-0.0656,-0.0675,-0.072,-0.0729,-0.0733,-0.0726,-0.0721,-0.0716,-0.0684,-0.0698,-0.069,-0.0776,-0.0776,-0.0776,0,0,-0.0163,-0.0205,-0.0216,-0.0273,-0.0307,-0.0322,-0.0384,-0.04,-0.0413,-0.0502,-0.0528,-0.059,-0.0657,-0.0686,-0.07,-0.0709,-0.0692,-0.0716,-0.0711,-0.0681,-0.0697,-0.0688,-0.068,-0.0775,-0.0775,-0.0775,0,0,-0.0105,-0.0147,-0.0146,-0.0178,-0.0225,-0.0268,-0.0268,-0.0334,-0.0364,-0.04,-0.0473,-0.0522,-0.0586,-0.0636,-0.0668,-0.0653,-0.0668,-0.0668,-0.0595,-0.0609,-0.0602,-0.0595,-0.0572,-0.0564,-0.066,-0.066,-0.066,0,-0.0061,-0.0082,-0.0145,-0.0148,-0.0163,-0.0238,-0.0231,-0.0268,-0.0341,-0.0351,-0.0396,-0.0495,-0.0559,-0.0591,-0.06,-0.0637,-0.0634,-0.0614,-0.0599,-0.0593,-0.0587,-0.0566,-0.0558,-0.0656,-0.0656,-0.0657,-0.0657,0,-0.0014,-0.0027,-0.0019,-0.006,-0.0079,-0.0082,-0.0145,-0.016,-0.0206,-0.0251,-0.0294,-0.0393,-0.0446,-0.0484,-0.054,-0.0535,-0.0541,-0.0594,-0.0607,-0.0573,-0.0554,-0.0547,-0.065,-0.0652,-0.0653,-0.0654,0,0,0.0066,0.0021,0.0023,0.0023,-0.0035,-0.0039,-0.0047,-0.0078,-0.006,-0.0148,-0.0138,-0.0251,-0.0299,-0.0338,-0.0418,-0.0438,-0.0412,-0.0487,-0.049,-0.0447,-0.0405,-0.0406,-0.0398,-0.0462,-0.0461,-0.046,-0.0401,0,0.012,0.0139,0.0095,0.0121,0.0122,0.0066,0.007,0.0039,0.0001,-0.0005,-0.0105,-0.0139,-0.0246,-0.027,-0.0306,-0.039,-0.0391,-0.042,-0.0457,-0.0457,-0.0449,-0.039,-0.036,-0.0304,-0.0394,-0.0393,-0.0392,0,0.0169,0.0174,0.0209,0.0207,0.0207,0.0219,0.0231,0.0224,0.0193,0.0165,0.0116,0.0033,-0.0023,-0.012,-0.0207,-0.0218,-0.0287,-0.0352,-0.0353,-0.0369,-0.0445,-0.0358,-0.0289,-0.0455,-0.0382,-0.0383,-0.0383,0,0.0247,0.0252,0.0288,0.0285,0.0274,0.03,0.0303,0.0287,0.0301,0.0282,0.0293,0.0199,0.0171,0.0058,-0.0089,-0.0141,-0.0162,-0.0259,-0.0314,-0.0314,-0.03,-0.0301,-0.0379,-0.0289,-0.0289,-0.0289,-0.0289,0,0.0303,0.0332,0.0337,0.0358,0.0423,0.0392,0.046,0.0454,0.046,0.0522,0.0393,0.0425,0.0216,0.0155,0.0001,-0.0108,-0.009,-0.0262,-0.0292,-0.0272,-0.0271,-0.0429,-0.0531,-0.0287,-0.0287,-0.0288,-0.0288,0,0.0363,0.0363,0.0412,0.0439,0.0456,0.051,0.0551,0.0609,0.0601,0.0684,0.0682,0.0611,0.0544,0.0346,0.0195,0.0034,-0.0176,-0.0138,-0.008,-0.0105,-0.0351,-0.0449,-0.0521,-0.0598,-0.0191,-0.0191,-0.0191,0,0.0388,0.0421,0.0484,0.0536,0.0554,0.0619,0.0677,0.0681,0.0754,0.0818,0.0886,0.0833,0.0834,0.0606,0.0319,0.0084,-0.0108,-0.0052,-0.0169,-0.0321,-0.0454,-0.0534,-0.06,-0.0111,-0.011,-0.0109,-0.0108,0,0.0443,0.0473,0.0524,0.0631,0.0711,0.0787,0.0879,0.0949,0.1005,0.1082,0.1205,0.121,0.0999,0.0778,0.0435,0.0243,-0.0166,-0.0044,-0.0223,-0.0394,-0.0462,-0.0565,-0.0177,-0.0101,-0.0102,-0.0102,-0.0103,-0.0103,0.0497,0.0552,0.0636,0.074,0.0836,0.0966,0.1048,0.1168,0.1303,0.1449,0.1457,0.1516,0.1182,0.0706,0.0423,-0.008,-0.0123,-0.0257,-0.0355,-0.0416,-0.0517,-0.0092,-0.0054,-0.0055,-0.0055,-0.0056,-0.0056,0,0.0568,0.0637,0.0738,0.0875,0.0998,0.1025,0.1193,0.1291,0.1485,0.1642,0.1738,0.1646,0.1208,0.0736,0.007,-0.0315,-0.0485,-0.053,-0.0652,-0.0704,-0.0331,-0.0358,-0.0359,-0.0359,-0.0359,-0.0359,-0.0358,-0.0358,0.0614,0.0726,0.0779,0.099,0.109,0.1249,0.1349,0.1505,0.1641,0.1846,0.1925,0.1947,0.1637,0.0422,-0.0425,-0.0641,-0.0915,-0.0962,-0.1121,-0.0895,-0.0878,-0.0862,-0.0913,-0.103,-0.1031,-0.1447,-0.1451,-0.1454]}],[{"header":{"parameterUnit":"m.s-1","parameterCategory":2,"la1":30.2991,"la2":30.254,"lo1":-89.0895,"lo2":-89.0444,"dy":0.0017,"dx":0.0017,"nx":28,"ny":28,"refTime":"2024-04-30T09:00:00:Z","depth":"2","parameterNumber":2,"parameterNumberName":"U-component_of_CURRENTS"},"data":[0,0,0,0,0,0,0,0,0,0,0,0,0,0,0,0,0,0,0,0,0,0,0,0,0,0,0,0,0,0,0,0,0,0,0,0,0,0,0,0,0,0,0,0,0,0,0,0,0,0,0,0,0,0,0,0,0,0,0.2724,0.2726,0,0.281,0.281,0.281,0.2833,0.2834,0.2835,0.2835,0.2897,0.2898,0.2899,0,0,0,0,0,0,0,0,0,0,0,0,0,0.259,0.2591,0.2724,0.2726,0.2729,0.281,0.281,0.2809,0.2833,0.2834,0.2835,0.2836,0.2897,0.2898,0.2899,0,0,0,0,0,0,0,0,0,0,0,0,0,0.2646,0.2592,0.2724,0.276,0.2766,0.281,0.281,0.2809,0.2833,0.2834,0.2835,0.2836,0.2896,0.2898,0.2899,0.2884,0,0,0.2903,0.2904,0,0,0,0,0,0,0,0,0.2643,0.2649,0.2753,0.2758,0.2764,0.2824,0.2786,0.2838,0.2833,0.2793,0.2836,0.2837,0.2879,0.2881,0.2875,0.2887,0.2889,0.2903,0.2904,0.2905,0.2905,0,0,0,0,0,0,0,0.2639,0.2646,0.2744,0.2755,0.2763,0.2777,0.2785,0.2795,0.2817,0.2796,0.2802,0.2833,0.288,0.2874,0.2877,0.289,0.2903,0.2904,0.2905,0.2906,0.2994,0.2995,0,0,0,0,0,0,0.2655,0.2642,0.2741,0.2748,0.2721,0.278,0.2787,0.2792,0.2817,0.2827,0.2832,0.2834,0.2871,0.2876,0.288,0.2951,0.2905,0.2906,0.2907,0.2992,0.2994,0.2996,0,0,0,0,0,0,0.2651,0.2661,0.2738,0.271,0.2722,0.2782,0.2787,0.2794,0.2821,0.2847,0.2853,0.2857,0.2872,0.2878,0.2921,0.2951,0.2906,0.2908,0.299,0.2993,0.2995,0.3038,0,0,0,0,0,0,0.2646,0.2658,0.2671,0.271,0.2725,0.278,0.2787,0.2795,0.2843,0.2847,0.2871,0.2876,0.2874,0.2919,0.2922,0.2952,0.2909,0.2988,0.2991,0.2994,0.3035,0.3042,0.3048,0,0,0,0,0,0.264,0.2655,0.267,0.2684,0.2738,0.2783,0.2789,0.2827,0.2844,0.2853,0.2881,0.2876,0.2939,0.2921,0.2924,0.2955,0.2987,0.299,0.2994,0.3032,0.3041,0.3048,0,0,0,0,0,0,0.26,0.2661,0.2678,0.2709,0.2753,0.2792,0.2815,0.2843,0.2869,0.2881,0.2892,0.2899,0.2951,0.2947,0.2927,0.2991,0.2964,0.2968,0.2992,0.3,0.3006,0.3006,0.291,0,0,0,0,0,0.26,0.2622,0.2683,0.2706,0.2731,0.2775,0.2803,0.2834,0.2869,0.2881,0.2897,0.2923,0.296,0.2977,0.2996,0.3026,0.3026,0.305,0.3056,0.3062,0.3065,0.3092,0.3101,0.3007,0.3007,0.3007,0,0,0.259,0.263,0.2642,0.2701,0.2731,0.2758,0.2791,0.2842,0.2876,0.2884,0.2919,0.2948,0.2975,0.3014,0.3036,0.3019,0.3091,0.3066,0.307,0.3071,0.3096,0.3105,0.3113,0.3009,0.3009,0.3008,0,0,0.2585,0.2617,0.2638,0.2674,0.2747,0.2768,0.2792,0.2844,0.2881,0.2929,0.2951,0.2998,0.3034,0.3059,0.3081,0.3133,0.3127,0.3146,0.3174,0.32,0.3207,0.3214,0.323,0.3237,0.3144,0.3144,0.3145,0,0.2572,0.2609,0.2651,0.2683,0.272,0.2773,0.2803,0.2841,0.2901,0.294,0.295,0.3031,0.3056,0.3117,0.3145,0.3148,0.3159,0.3141,0.3207,0.3214,0.322,0.3234,0.3242,0.3147,0.3147,0.3146,0.3146,0,0.2587,0.262,0.2636,0.2682,0.2717,0.2758,0.2821,0.2863,0.2915,0.2956,0.3042,0.3078,0.3123,0.315,0.3171,0.3234,0.3227,0.3215,0.3184,0.3232,0.3244,0.3252,0.3151,0.315,0.3149,0.3148,0,0,0.2543,0.263,0.2634,0.2664,0.2731,0.2757,0.2818,0.2892,0.2943,0.3005,0.307,0.3149,0.3174,0.32,0.3228,0.3265,0.3328,0.3268,0.3268,0.3277,0.3387,0.3324,0.3326,0.3331,0.3333,0.3334,0.3379,0,0.2544,0.2596,0.2643,0.2681,0.2714,0.278,0.2829,0.2902,0.297,0.3035,0.3113,0.3179,0.3191,0.3232,0.3267,0.3331,0.335,0.3317,0.3345,0.3345,0.3279,0.3333,0.3094,0.3109,0.3386,0.3387,0.3388,0,0.2546,0.2585,0.263,0.2706,0.2726,0.2755,0.2845,0.2899,0.3006,0.3074,0.3143,0.3193,0.3282,0.3274,0.3372,0.3355,0.337,0.34,0.3402,0.3332,0.3297,0.3107,0.3112,0.34,0.3399,0.3398,0.3397,0,0.2499,0.2574,0.2611,0.2635,0.2721,0.2768,0.2814,0.2913,0.297,0.3095,0.3142,0.324,0.3291,0.335,0.3408,0.3406,0.3493,0.3486,0.3429,0.3425,0.3219,0.3194,0.3518,0.3518,0.3518,0.3518,0.3518,0,0.2488,0.2509,0.2598,0.2616,0.2662,0.2742,0.2802,0.2878,0.2983,0.3043,0.3146,0.3207,0.3315,0.337,0.342,0.345,0.3491,0.3446,0.3438,0.3228,0.3204,0.3451,0.3442,0.3519,0.3519,0.3519,0.3518,0,0.2425,0.2485,0.252,0.2613,0.2641,0.267,0.2766,0.2816,0.2932,0.3011,0.3056,0.3193,0.3301,0.3366,0.3466,0.3446,0.3499,0.3475,0.3222,0.3183,0.3413,0.3406,0.3452,0.3451,0.3449,0.3448,0.3447,0,0.2394,0.2415,0.2487,0.2506,0.2549,0.2608,0.2654,0.2775,0.2827,0.3001,0.3031,0.3164,0.3239,0.335,0.3371,0.342,0.3467,0.3182,0.3135,0.3422,0.3409,0.3405,0.3401,0.288,0.2875,0.287,0.2866,0,0.233,0.2361,0.2394,0.2432,0.2474,0.2503,0.258,0.2605,0.2757,0.2836,0.2954,0.3037,0.3163,0.3121,0.3164,0.3162,0.3171,0.3092,0.3451,0.294,0.2888,0.2874,0.2887,0.2826,0.283,0.2833,0.2835,0.2837,0.2275,0.2268,0.2319,0.234,0.2382,0.239,0.2384,0.2473,0.2528,0.2622,0.2783,0.283,0.2901,0.2881,0.2816,0.277,0.3,0.2868,0.2879,0.2896,0.2828,0.2777,0.2681,0.2684,0.2687,0.2689,0.2691,0,0.2196,0.22,0.2224,0.2235,0.2234,0.2293,0.2325,0.2303,0.2321,0.244,0.2522,0.2386,0.2381,0.2448,0.2335,0.2355,0.2306,0.2249,0.2164,0.2209,0.2248,0.2142,0.1815,0.1812,0.1809,0.1806,0,0,0.2156,0.2132,0.2131,0.2082,0.21,0.2052,0.2042,0.2033,0.2072,0.2065,0.208,0.2276,0.2389,0.2061,0.2043,0.1903,0.2025,0.1828,0.2543,0.2489,0.2523,0.2635,0.2528,0,0,0,0,0]},{"header":{"parameterUnit":"m.s-1","parameterCategory":2,"la1":30.2991,"la2":30.254,"lo1":-89.0895,"lo2":-89.0444,"dy":0.0017,"dx":0.0017,"nx":28,"ny":28,"refTime":"2024-04-30T09:00:00:Z","depth":"2","parameterNumber":3,"parameterNumberName":"V-component_of_CURRENTS"},"data":[0,0,0,0,0,0,0,0,0,0,0,0,0,0,0,0,0,0,0,0,0,0,0,0,0,0,0,0,0,0,0,0,0,0,0,0,0,0,0,0,0,0,0,0,0,0,0,0,0,0,0,0,0,0,0,0,0,0,0.0122,0.0122,0,0.0071,0.0071,0.007,0.004,0.004,0.0039,0.0039,-0.0085,-0.0087,-0.009,0,0,0,0,0,0,0,0,0,0,0,0,0,0.0143,0.0144,0.0123,0.0122,0.0121,0.0071,0.0071,0.007,0.004,0.004,0.0039,0.0039,-0.0084,-0.0087,-0.009,0,0,0,0,0,0,0,0,0,0,0,0,0,0.0121,0.0144,0.0123,0.0097,0.0094,0.0071,0.0071,0.007,0.0041,0.004,0.0039,0.0039,-0.0083,-0.0087,-0.0091,-0.0104,0,0,-0.0104,-0.0106,0,0,0,0,0,0,0,0,0.0122,0.0121,0.0102,0.0099,0.0095,0.0058,0.0032,0.0007,0.0041,0.0065,0.0039,0.0038,-0.0045,-0.0053,-0.0055,-0.011,-0.0115,-0.0104,-0.0107,-0.0109,-0.011,0,0,0,0,0,0,0,0.0124,0.0122,0.0106,0.0101,0.0097,0.007,0.0067,0.0028,0.0016,0.0063,0.0059,0.0048,-0.0047,-0.005,-0.0058,-0.0117,-0.0104,-0.0108,-0.0111,-0.0113,-0.0223,-0.0223,0,0,0,0,0,0,0.0127,0.0124,0.0107,0.0104,0.0103,0.007,0.0067,0.0074,0.0017,0.0008,0.0049,0.0047,-0.0043,-0.0053,-0.0063,-0.0099,-0.0109,-0.0113,-0.0115,-0.0223,-0.0223,-0.0224,0,0,0,0,0,0,0.0128,0.0126,0.0109,0.0109,0.0104,0.0071,0.0078,0.0073,0.0058,0.0007,-0.0003,0.0037,-0.0044,-0.0057,-0.0098,-0.0104,-0.0115,-0.0119,-0.0222,-0.0223,-0.0223,-0.0161,0,0,0,0,0,0,0.0129,0.0128,0.0129,0.011,0.0104,0.0104,0.0078,0.0072,0.0051,0.0048,-0.0006,-0.0017,-0.0045,-0.0092,-0.0103,-0.011,-0.0122,-0.0222,-0.0223,-0.0223,-0.0163,-0.0159,-0.0157,0,0,0,0,0,0.013,0.0141,0.013,0.0127,0.0109,0.0104,0.01,0.0075,0.0051,0.0057,0.0014,-0.0016,-0.0104,-0.0095,-0.0108,-0.0117,-0.0222,-0.0222,-0.0223,-0.0164,-0.016,-0.0157,0,0,0,0,0,0,0.0149,0.0138,0.0125,0.0132,0.0119,0.0098,0.0094,0.0071,0.0043,0.0034,-0.0018,-0.0031,-0.0069,-0.0104,-0.0093,-0.0152,-0.017,-0.0173,-0.012,-0.0117,-0.0114,-0.0071,-0.0126,0,0,0,0,0,0.0154,0.0163,0.0144,0.0149,0.0143,0.0115,0.0105,0.0091,0.0063,0.005,0.0012,-0.0037,-0.008,-0.0107,-0.0142,-0.0176,-0.0193,-0.0192,-0.0189,-0.0186,-0.0161,-0.0191,-0.0187,-0.0226,-0.0226,-0.0226,0,0,0.0159,0.0156,0.0158,0.0153,0.014,0.015,0.0109,0.0102,0.0101,0.0039,0.0023,-0.0025,-0.0086,-0.0116,-0.0138,-0.0148,-0.0187,-0.0187,-0.0184,-0.016,-0.0191,-0.0187,-0.0183,-0.0227,-0.0227,-0.0227,0,0,0.0184,0.0177,0.0192,0.0188,0.0173,0.0167,0.0164,0.0142,0.0122,0.01,0.0051,0.0008,-0.0057,-0.0091,-0.0123,-0.0128,-0.0167,-0.0156,-0.0109,-0.0139,-0.0135,-0.0132,-0.0154,-0.0153,-0.0158,-0.0158,-0.0157,0,0.0192,0.021,0.0194,0.0208,0.0208,0.0179,0.0196,0.0178,0.0145,0.0135,0.0103,0.0021,-0.0038,-0.0075,-0.0081,-0.0118,-0.0139,-0.0116,-0.0132,-0.0129,-0.0127,-0.015,-0.015,-0.0155,-0.0155,-0.0155,-0.0156,0,0.0227,0.0239,0.0248,0.0265,0.0267,0.0279,0.0257,0.0253,0.0222,0.0204,0.0162,0.0088,0.0046,0.0003,-0.0046,-0.0067,-0.0088,-0.012,-0.0133,-0.0118,-0.0145,-0.0146,-0.0151,-0.0152,-0.0152,-0.0153,0,0,0.026,0.0272,0.0277,0.0295,0.0298,0.0313,0.0315,0.0318,0.0329,0.0277,0.0278,0.0185,0.0152,0.0114,0.0042,0.0002,-0.0021,-0.0051,-0.0054,-0.0057,-0.0079,-0.0094,-0.0097,-0.0057,-0.0057,-0.0057,-0.0105,0,0.0295,0.0341,0.0333,0.0382,0.0407,0.0388,0.0401,0.0397,0.0379,0.0377,0.0293,0.0265,0.0189,0.016,0.0114,0.0011,-0.002,-0.0004,-0.0105,-0.0108,-0.011,-0.0097,-0.0069,-0.011,-0.0107,-0.0107,-0.0107,0,0.0334,0.0365,0.0416,0.045,0.0458,0.0483,0.0517,0.0522,0.0507,0.0485,0.0455,0.0394,0.0325,0.0255,0.0128,0.014,0.0049,-0.0031,-0.0035,-0.0063,-0.0123,-0.0125,-0.0112,-0.0109,-0.0109,-0.0109,-0.0109,0,0.0384,0.0423,0.0473,0.0484,0.0518,0.0535,0.0555,0.0561,0.0579,0.0562,0.057,0.049,0.0446,0.0329,0.0165,0.0145,0.0028,-0.0022,-0.0111,-0.0114,-0.0114,-0.0117,-0.0088,-0.0088,-0.0088,-0.0088,-0.0088,0,0.0431,0.0471,0.0502,0.0531,0.0596,0.0594,0.0654,0.066,0.0675,0.072,0.0635,0.064,0.0461,0.0366,0.0214,0.0058,0.007,-0.0085,-0.0122,-0.0095,-0.0095,-0.0114,-0.0116,-0.009,-0.009,-0.0089,-0.0089,0,0.0477,0.0495,0.0557,0.0602,0.0622,0.0671,0.0724,0.077,0.077,0.0825,0.0821,0.0752,0.0633,0.0453,0.026,0.0128,-0.0031,-0.0089,-0.004,-0.007,-0.0165,-0.0164,-0.0187,-0.0188,-0.0188,-0.0189,-0.0189,0,0.0504,0.0543,0.0614,0.066,0.0682,0.0747,0.0796,0.082,0.0874,0.0899,0.0934,0.084,0.0797,0.0517,0.0265,0.0024,-0.0021,-0.0112,-0.0146,-0.0139,-0.0173,-0.0171,-0.0169,-0.0129,-0.0129,-0.0129,-0.0129,0,0.056,0.0583,0.0633,0.0725,0.0789,0.0866,0.0937,0.0993,0.1034,0.1077,0.1117,0.1082,0.0833,0.0594,0.0264,0.01,-0.0074,-0.0118,-0.0118,-0.0107,-0.0088,-0.0121,-0.012,-0.0129,-0.0129,-0.0129,-0.0129,-0.0129,0.0598,0.0642,0.0706,0.0793,0.0872,0.0971,0.1039,0.1122,0.1215,0.1285,0.1253,0.1207,0.0942,0.0523,0.0232,-0.0072,-0.006,-0.0173,-0.0171,-0.017,-0.0153,-0.0136,-0.0182,-0.0183,-0.0183,-0.0183,-0.0183,0,0.0642,0.0689,0.077,0.087,0.0958,0.0996,0.1125,0.1194,0.131,0.1377,0.1404,0.1154,0.0886,0.057,0.0124,-0.014,-0.0161,-0.0226,-0.0197,-0.0195,-0.0193,-0.0177,-0.0213,-0.0214,-0.0215,-0.0216,0,0,0.0665,0.074,0.0777,0.0918,0.0994,0.1115,0.1192,0.13,0.1375,0.1438,0.142,0.1367,0.0989,0.0659,0.0299,0.0038,-0.0017,-0.001,0.0046,0.0127,0.0131,-0.0127,-0.0095,0,0,0,0,0]}],[{"header":{"parameterUnit":"m.s-1","parameterCategory":2,"la1":30.2991,"la2":30.254,"lo1":-89.0895,"lo2":-89.0444,"dy":0.0017,"dx":0.0017,"nx":28,"ny":28,"refTime":"2024-04-30T09:00:00:Z","depth":"4","parameterNumber":2,"parameterNumberName":"U-component_of_CURRENTS"},"data":[0,0,0,0,0,0,0,0,0,0,0,0,0,0,0,0,0,0,0,0,0,0,0,0,0,0,0,0,0,0,0,0,0,0,0,0,0,0,0,0,0,0,0,0,0,0,0,0,0,0,0,0,0,0,0,0,0,0,0.1354,0.1354,0,0.1402,0.1402,0.1403,0.1445,0.1445,0.1445,0.1446,0.1513,0.1514,0.1516,0,0,0,0,0,0,0,0,0,0,0,0,0,0.1358,0.1358,0.1354,0.1354,0.1355,0.1401,0.1402,0.1403,0.1445,0.1445,0.1445,0.1446,0.1512,0.1514,0.1516,0,0,0,0,0,0,0,0,0,0,0,0,0,0.1378,0.1358,0.1354,0.1379,0.1382,0.1401,0.1402,0.1403,0.1445,0.1445,0.1445,0.1446,0.1511,0.1514,0.1516,0.1521,0,0,0.1523,0.1524,0,0,0,0,0,0,0,0,0.1377,0.1378,0.1375,0.1378,0.1381,0.1416,0.1428,0.1443,0.1445,0.1423,0.1446,0.1446,0.148,0.1485,0.1496,0.1524,0.1527,0.1523,0.1524,0.1525,0.1526,0,0,0,0,0,0,0,0.1375,0.1377,0.1375,0.1376,0.1379,0.1409,0.1412,0.1432,0.1451,0.1425,0.1428,0.1429,0.1482,0.1494,0.1498,0.1528,0.1523,0.1525,0.1526,0.1527,0.1644,0.1646,0,0,0,0,0,0,0.1361,0.1375,0.1373,0.1376,0.1377,0.1408,0.1412,0.1406,0.145,0.1457,0.1429,0.1431,0.1489,0.1495,0.15,0.158,0.1525,0.1528,0.1529,0.1643,0.1645,0.1647,0,0,0,0,0,0,0.1361,0.136,0.1371,0.1376,0.1379,0.1407,0.1401,0.1406,0.1439,0.1453,0.146,0.1458,0.149,0.1497,0.1542,0.158,0.1529,0.1531,0.1641,0.1643,0.1646,0.1695,0,0,0,0,0,0,0.1361,0.136,0.1376,0.1374,0.1378,0.1394,0.14,0.1407,0.1437,0.1441,0.1479,0.1485,0.1491,0.1539,0.1545,0.1583,0.1532,0.1638,0.1642,0.1645,0.1691,0.1699,0.1705,0,0,0,0,0,0.1361,0.1373,0.1376,0.1377,0.139,0.1394,0.14,0.1423,0.1438,0.1454,0.1487,0.1485,0.1564,0.1542,0.1548,0.1588,0.1637,0.1641,0.1645,0.1688,0.1697,0.1705,0,0,0,0,0,0,0.1376,0.1378,0.1382,0.1392,0.1398,0.14,0.1428,0.1435,0.1474,0.1491,0.1503,0.1511,0.1575,0.157,0.1545,0.1632,0.1602,0.1607,0.1633,0.1642,0.1649,0.166,0.1534,0,0,0,0,0,0.1386,0.1402,0.1395,0.1407,0.1414,0.1426,0.144,0.1449,0.1469,0.1488,0.1519,0.1554,0.1592,0.1606,0.1643,0.1677,0.1694,0.1708,0.1716,0.1722,0.1737,0.1793,0.1807,0.1659,0.1659,0.1659,0,0,0.1392,0.1398,0.1406,0.1414,0.1427,0.1441,0.1438,0.1461,0.1481,0.1489,0.1554,0.1591,0.1612,0.1666,0.1692,0.1665,0.1773,0.1727,0.1732,0.1743,0.1799,0.1813,0.1826,0.1662,0.1662,0.1661,0,0,0.1403,0.1421,0.1437,0.1449,0.1468,0.1473,0.1482,0.1503,0.1528,0.1568,0.1602,0.1657,0.1697,0.1732,0.1747,0.1813,0.1822,0.1829,0.186,0.1915,0.1928,0.1939,0.1977,0.1991,0.1816,0.1816,0.1816,0,0.1414,0.1429,0.1442,0.146,0.1481,0.1488,0.1508,0.1527,0.1565,0.1601,0.1595,0.1715,0.1728,0.1807,0.1829,0.183,0.186,0.1822,0.1924,0.1936,0.1947,0.1983,0.1998,0.1819,0.1819,0.1818,0.1818,0,0.1427,0.1454,0.1468,0.1496,0.1519,0.1539,0.1557,0.1601,0.163,0.1652,0.1749,0.1782,0.1853,0.1866,0.1861,0.1958,0.1955,0.1939,0.19,0.1965,0.1998,0.2013,0.1823,0.1822,0.1821,0.182,0,0,0.1409,0.1465,0.1475,0.1501,0.1545,0.1557,0.1613,0.166,0.1713,0.1759,0.1834,0.1901,0.1941,0.1963,0.1988,0.2021,0.2111,0.2012,0.2014,0.2046,0.2237,0.2097,0.21,0.212,0.2123,0.2125,0.2229,0,0.1418,0.1457,0.1492,0.1541,0.1562,0.1613,0.1663,0.1715,0.1764,0.1841,0.1892,0.1974,0.1969,0.2021,0.2061,0.2112,0.2154,0.2085,0.2173,0.2176,0.2041,0.2113,0.2134,0.224,0.2243,0.2245,0.2247,0,0.1418,0.1449,0.1497,0.1573,0.1591,0.1632,0.1735,0.1781,0.1882,0.1928,0.2022,0.2066,0.2162,0.2129,0.2252,0.2215,0.2239,0.2255,0.2259,0.2124,0.2064,0.2164,0.2274,0.2272,0.227,0.2268,0.2266,0,0.1387,0.1456,0.15,0.1524,0.1605,0.1663,0.172,0.182,0.188,0.2005,0.2063,0.2175,0.2246,0.2304,0.2347,0.2317,0.2456,0.2412,0.2313,0.2303,0.2375,0.2361,0.2499,0.2499,0.2498,0.2498,0.2498,0,0.137,0.1409,0.1496,0.1517,0.1593,0.1661,0.1763,0.1835,0.1952,0.203,0.212,0.2197,0.2296,0.2376,0.2395,0.2405,0.2505,0.234,0.2328,0.2392,0.2379,0.2385,0.237,0.2502,0.2501,0.25,0.25,0,0.1322,0.1377,0.1434,0.1537,0.1578,0.1636,0.1778,0.1839,0.1963,0.2072,0.212,0.225,0.2354,0.2428,0.2527,0.2456,0.248,0.2458,0.2538,0.2525,0.2277,0.2264,0.2351,0.2347,0.2344,0.2341,0.2339,0,0.1293,0.1317,0.1438,0.1477,0.1531,0.1634,0.1698,0.1834,0.1894,0.2089,0.2119,0.2274,0.2349,0.2373,0.2459,0.2495,0.2463,0.2446,0.2342,0.2286,0.2267,0.2259,0.225,0.2334,0.2333,0.2332,0.2331,0,0.1239,0.1299,0.1347,0.1432,0.1506,0.1582,0.1682,0.1714,0.1871,0.2004,0.2078,0.2133,0.2243,0.23,0.235,0.2366,0.2434,0.2411,0.2416,0.2318,0.2266,0.2248,0.2244,0.2319,0.2321,0.2322,0.2323,0,0.1209,0.1231,0.1308,0.1372,0.1457,0.1493,0.1561,0.1631,0.1711,0.1902,0.1936,0.2094,0.2234,0.2238,0.2288,0.2291,0.2244,0.2141,0.216,0.2174,0.2065,0.197,0.194,0,0,0,0,0,0.1171,0.1186,0.1237,0.1299,0.1374,0.1427,0.153,0.1595,0.1745,0.1748,0.1834,0.1928,0.2002,0.2081,0.205,0.2211,0.2252,0.2162,0.2142,0.2256,0.2269,0.2155,0,0,0,0,0,0,0.1143,0.1191,0.1208,0.1222,0.1249,0.1322,0.1381,0.1478,0.148,0.1639,0.1689,0.1814,0.1914,0.2016,0.202,0.2043,0.1988,0.2264,0.2258,0.2248,0.226,0.2271,0.2159,0,0,0,0,0]},{"header":{"parameterUnit":"m.s-1","parameterCategory":2,"la1":30.2991,"la2":30.254,"lo1":-89.0895,"lo2":-89.0444,"dy":0.0017,"dx":0.0017,"nx":28,"ny":28,"refTime":"2024-04-30T09:00:00:Z","depth":"4","parameterNumber":3,"parameterNumberName":"V-component_of_CURRENTS"},"data":[0,0,0,0,0,0,0,0,0,0,0,0,0,0,0,0,0,0,0,0,0,0,0,0,0,0,0,0,0,0,0,0,0,0,0,0,0,0,0,0,0,0,0,0,0,0,0,0,0,0,0,0,0,0,0,0,0,0,0.0309,0.0309,0,0.0303,0.0302,0.0302,0.0304,0.0304,0.0305,0.0305,0.0282,0.0281,0.028,0,0,0,0,0,0,0,0,0,0,0,0,0,0.0267,0.0268,0.0309,0.0309,0.0309,0.0303,0.0302,0.0302,0.0304,0.0304,0.0305,0.0305,0.0282,0.0281,0.028,0,0,0,0,0,0,0,0,0,0,0,0,0,0.0274,0.0268,0.0309,0.031,0.0311,0.0303,0.0302,0.0302,0.0304,0.0304,0.0305,0.0305,0.0282,0.0281,0.028,0.0264,0,0,0.0276,0.0275,0,0,0,0,0,0,0,0,0.0274,0.0276,0.031,0.031,0.0311,0.0306,0.0279,0.0289,0.0304,0.0305,0.0305,0.0305,0.0289,0.0287,0.0283,0.0263,0.0262,0.0276,0.0275,0.0275,0.0274,0,0,0,0,0,0,0,0.0273,0.0276,0.0305,0.031,0.031,0.0292,0.0294,0.0281,0.0294,0.0305,0.0305,0.0307,0.0289,0.0285,0.0283,0.0262,0.0276,0.0275,0.0274,0.0273,0.0266,0.0267,0,0,0,0,0,0,0.028,0.0276,0.0306,0.0305,0.0294,0.0293,0.0295,0.0306,0.0294,0.0293,0.0306,0.0307,0.0287,0.0284,0.0282,0.0298,0.0275,0.0273,0.0273,0.0265,0.0266,0.0267,0,0,0,0,0,0,0.0279,0.0283,0.0306,0.029,0.0292,0.0294,0.0306,0.0306,0.031,0.0296,0.0294,0.0312,0.0287,0.0284,0.0285,0.0295,0.0273,0.0272,0.0265,0.0266,0.0266,0.0307,0,0,0,0,0,0,0.0278,0.0283,0.0292,0.0291,0.0294,0.0311,0.0305,0.0305,0.031,0.0311,0.03,0.0298,0.0287,0.0287,0.0284,0.0293,0.0271,0.0264,0.0265,0.0266,0.0305,0.0309,0.0312,0,0,0,0,0,0.0277,0.0288,0.0293,0.0297,0.0307,0.0311,0.0311,0.0311,0.0311,0.0316,0.0312,0.0299,0.0291,0.0286,0.0282,0.0292,0.0264,0.0265,0.0266,0.0303,0.0308,0.0312,0,0,0,0,0,0,0.027,0.0289,0.0295,0.0311,0.0316,0.0312,0.0314,0.0316,0.0316,0.0319,0.0304,0.0301,0.0306,0.0293,0.0288,0.0293,0.0276,0.0276,0.0305,0.031,0.0313,0.0306,0.027,0,0,0,0,0,0.0275,0.0293,0.0302,0.0315,0.0318,0.0317,0.0319,0.0324,0.0323,0.0324,0.0314,0.0308,0.0305,0.0305,0.0296,0.0297,0.026,0.0302,0.0305,0.0309,0.03,0.0254,0.0253,0.0271,0.0271,0.0271,0,0,0.0276,0.0288,0.0298,0.0315,0.0316,0.0327,0.0319,0.0329,0.0341,0.032,0.0328,0.0319,0.0308,0.0313,0.0314,0.0306,0.0286,0.031,0.0313,0.0303,0.0255,0.0253,0.0252,0.0272,0.0272,0.0271,0,0,0.0285,0.0298,0.0316,0.0323,0.0336,0.0337,0.0343,0.0346,0.0352,0.0362,0.035,0.0343,0.0343,0.0331,0.0328,0.0345,0.0306,0.0351,0.0365,0.0322,0.0319,0.0317,0.0272,0.0265,0.0355,0.0355,0.0355,0,0.0286,0.0314,0.0318,0.0334,0.0345,0.0345,0.0364,0.0366,0.037,0.0374,0.0374,0.0361,0.0349,0.0347,0.0357,0.0352,0.0321,0.035,0.0325,0.0322,0.0319,0.0273,0.0264,0.0357,0.0357,0.0357,0.0357,0,0.0308,0.0331,0.0338,0.0365,0.0373,0.039,0.0398,0.0406,0.0414,0.0413,0.0415,0.0395,0.0386,0.0386,0.0379,0.0357,0.034,0.0333,0.0311,0.0319,0.027,0.0261,0.036,0.036,0.0359,0.0359,0,0,0.0315,0.035,0.0355,0.0379,0.0396,0.041,0.0427,0.0444,0.0459,0.0452,0.046,0.0446,0.0426,0.042,0.0402,0.0365,0.0317,0.0344,0.0341,0.0295,0.0217,0.0214,0.0203,0.0307,0.0306,0.0305,0.0194,0,0.0336,0.038,0.0388,0.0429,0.0454,0.046,0.0476,0.0489,0.0495,0.0497,0.0471,0.047,0.0444,0.0443,0.04,0.0342,0.0294,0.0347,0.022,0.0215,0.0208,0.0193,0.03,0.0186,0.0184,0.0183,0.0181,0,0.0359,0.0391,0.0437,0.048,0.049,0.0509,0.0542,0.056,0.0555,0.0557,0.0538,0.0513,0.0465,0.0442,0.0325,0.0362,0.0288,0.0235,0.0229,0.0202,0.0195,0.0176,0.0164,0.0165,0.0166,0.0168,0.0169,0,0.038,0.0427,0.0471,0.0485,0.0526,0.0547,0.0568,0.0578,0.0604,0.0592,0.0598,0.0533,0.051,0.0407,0.0302,0.031,0.0165,0.0161,0.0081,0.008,0.0098,0.0101,0.0059,0.0059,0.0059,0.006,0.006,0,0.0405,0.0441,0.0487,0.0513,0.0568,0.0581,0.063,0.0639,0.0654,0.0681,0.0629,0.0624,0.05,0.0411,0.0303,0.0165,0.0159,0.007,0.0047,0.0119,0.0126,0.0091,0.0096,0.0055,0.0056,0.0057,0.0058,0,0.0421,0.0449,0.0506,0.0559,0.0582,0.0622,0.0682,0.0714,0.0719,0.0749,0.0747,0.0684,0.057,0.0435,0.0267,0.0174,0.0038,-0.0013,0.007,0.0057,-0.0022,-0.0013,-0.012,-0.0121,-0.0122,-0.0123,-0.0124,0,0.0433,0.0467,0.0542,0.0582,0.0609,0.0672,0.0717,0.0748,0.078,0.0787,0.0798,0.0708,0.0646,0.0407,0.0258,0.0035,0.0008,-0.0074,-0.0053,-0.0031,-0.0042,-0.0032,-0.0022,-0.0125,-0.0126,-0.0126,-0.0126,0,0.0458,0.0485,0.053,0.0612,0.067,0.0739,0.08,0.0828,0.0861,0.0866,0.0837,0.0724,0.0593,0.0412,0.0239,0.0082,-0.0026,-0.0085,-0.0084,-0.0065,-0.0039,-0.0046,-0.0036,-0.0129,-0.0129,-0.0129,-0.0128,0,0.0474,0.0505,0.0565,0.0634,0.0712,0.0779,0.0815,0.085,0.0882,0.0885,0.0873,0.0741,0.0667,0.0435,0.0278,0.0122,0.008,0.0023,0.0017,0.0019,0.0097,0.0152,0.009,0,0,0,0,0,0.0485,0.0518,0.0584,0.0658,0.0735,0.0782,0.0858,0.0885,0.0915,0.0901,0.089,0.0772,0.055,0.0456,0.0297,0.0246,0.0042,0.0053,-0.0029,-0.0148,-0.0144,-0.0076,0,0,0,0,0,0,0.0491,0.0547,0.0576,0.0664,0.0718,0.0805,0.0855,0.0881,0.0872,0.0879,0.0766,0.072,0.0504,0.0639,0.029,0.0244,0.0167,-0.0046,-0.005,-0.015,-0.0146,-0.0143,-0.0072,0,0,0,0,0]}]]